| time (UTC) | temp C | wind direction | speed KPH | gust KPH | rain 1hr cm | rain 24hr cm | rain mn cm | humidity % | barometer mb |
| 20260905053616 | 15 | 34 | 0.0 | 0.0 | 0.00 | 0.03 | 0.03 | 81 | 1025.9 |
| 20260905053108 | 15 | 34 | 0.0 | 0.0 | 0.00 | 0.03 | 0.03 | 81 | 1026.0 |
| 20260905052621 | 15 | 34 | 0.0 | 0.0 | 0.00 | 0.03 | 0.03 | 81 | 1026.0 |
| 20260905052114 | 16 | 34 | 0.0 | 0.0 | 0.00 | 0.03 | 0.03 | 81 | 1026.1 |
| 20260905051144 | 16 | 34 | 0.0 | 0.0 | 0.00 | 0.03 | 0.03 | 80 | 1026.2 |
| 20260905050121 | 16 | 34 | 0.0 | 0.0 | 0.00 | 0.03 | 0.03 | 79 | 1026.2 |
| 20260905045615 | 16 | 34 | 0.0 | 0.0 | 0.00 | 0.03 | 0.03 | 78 | 1026.2 |
| 20260905045107 | 16 | 34 | 0.0 | 0.0 | 0.00 | 0.03 | 0.03 | 79 | 1026.2 |
| 20260905044623 | 16 | 34 | 0.0 | 0.0 | 0.00 | 0.03 | 0.03 | 79 | 1026.2 |
| 20260905044114 | 16 | 34 | 0.0 | 0.0 | 0.00 | 0.03 | 0.03 | 78 | 1026.4 |
| 20260905043607 | 17 | 34 | 0.0 | 0.0 | 0.00 | 0.03 | 0.03 | 77 | 1026.6 |
| 20260905043104 | 17 | 34 | 0.0 | 0.0 | 0.00 | 0.03 | 0.03 | 77 | 1026.5 |
| 20260905042618 | 17 | 34 | 0.0 | 0.0 | 0.00 | 0.03 | 0.03 | 76 | 1026.7 |
| 20260905042112 | 17 | 34 | 0.0 | 0.0 | 0.00 | 0.03 | 0.03 | 76 | 1026.7 |
| 20260905041627 | 17 | 34 | 0.0 | 0.0 | 0.00 | 0.03 | 0.03 | 75 | 1026.7 |
| 20260905041120 | 17 | 34 | 0.0 | 0.0 | 0.00 | 0.03 | 0.03 | 73 | 1026.7 |
| 20260905040614 | 17 | 34 | 0.0 | 0.0 | 0.00 | 0.03 | 0.03 | 74 | 1026.7 |
| 20260905040107 | 18 | 34 | 0.0 | 0.0 | 0.00 | 0.03 | 0.03 | 73 | 1026.7 |
| 20260905035622 | 18 | 34 | 0.0 | 0.0 | 0.00 | 0.03 | 0.03 | 72 | 1026.8 |
| 20260905035135 | 18 | 34 | 0.0 | 0.0 | 0.00 | 0.03 | 0.03 | 71 | 1026.8 |
| 20260905034630 | 18 | 34 | 0.0 | 0.0 | 0.00 | 0.03 | 0.03 | 71 | 1026.7 |
| 20260905034106 | 18 | 34 | 0.0 | 0.0 | 0.00 | 0.03 | 0.03 | 68 | 1026.7 |
| 20260905033620 | 19 | 34 | 0.0 | 0.0 | 0.00 | 0.03 | 0.03 | 68 | 1026.8 |
| 20260905033114 | 19 | 34 | 0.0 | 0.0 | 0.00 | 0.03 | 0.03 | 69 | 1026.8 |
| 20260905032608 | 20 | 34 | 0.0 | 0.0 | 0.00 | 0.03 | 0.03 | 68 | 1026.7 |
| 20260905032142 | 20 | 34 | 0.0 | 0.0 | 0.00 | 0.03 | 0.03 | 65 | 1026.7 |
| 20260905031615 | 20 | 34 | 0.0 | 0.0 | 0.00 | 0.03 | 0.03 | 66 | 1026.7 |
| 20260905031109 | 20 | 34 | 0.0 | 0.0 | 0.00 | 0.03 | 0.03 | 64 | 1026.7 |
| 20260905030643 | 20 | 34 | 0.0 | 1.6 | 0.00 | 0.03 | 0.03 | 63 | 1026.7 |
| 20260905030116 | 20 | 34 | 0.0 | 1.6 | 0.00 | 0.03 | 0.03 | 63 | 1026.6 |
| 20260905025614 | 20 | 34 | 0.0 | 0.0 | 0.00 | 0.03 | 0.03 | 64 | 1026.4 |
| 20260905025108 | 20 | 34 | 0.0 | 0.0 | 0.00 | 0.03 | 0.03 | 63 | 1026.5 |
| 20260905024622 | 20 | 34 | 0.0 | 0.0 | 0.00 | 0.03 | 0.03 | 62 | 1026.4 |
| 20260905024116 | 20 | 34 | 0.0 | 0.0 | 0.00 | 0.03 | 0.03 | 62 | 1026.4 |
| 20260905023610 | 20 | 34 | 0.0 | 3.2 | 0.00 | 0.03 | 0.03 | 62 | 1026.3 |
| 20260905023103 | 20 | 34 | 0.0 | 3.2 | 0.00 | 0.03 | 0.03 | 61 | 1026.1 |
| 20260905022618 | 20 | 34 | 1.6 | 3.2 | 0.00 | 0.03 | 0.03 | 61 | 1026.1 |
| 20260905022110 | 20 | 34 | 0.0 | 8.0 | 0.00 | 0.03 | 0.03 | 60 | 1025.9 |
| 20260905021609 | 20 | 34 | 4.8 | 8.0 | 0.00 | 0.03 | 0.03 | 60 | 1025.7 |
| 20260905021104 | 20 | 40 | 1.6 | 4.8 | 0.00 | 0.03 | 0.03 | 60 | 1025.5 |
| 20260905020637 | 20 | 131 | 0.0 | 8.0 | 0.00 | 0.03 | 0.03 | 60 | 1025.4 |
| 20260905020110 | 20 | 101 | 0.0 | 11.3 | 0.00 | 0.03 | 0.03 | 61 | 1025.4 |
| 20260905015624 | 20 | 126 | 3.2 | 6.4 | 0.00 | 0.03 | 0.03 | 63 | 1025.3 |
| 20260905015118 | 20 | 90 | 1.6 | 8.0 | 0.00 | 0.03 | 0.03 | 66 | 1025.3 |
| 20260905014611 | 20 | 232 | 0.0 | 0.0 | 0.00 | 0.03 | 0.03 | 65 | 1025.1 |
| 20260905014104 | 20 | 232 | 0.0 | 0.0 | 0.00 | 0.03 | 0.03 | 66 | 1025.0 |
| 20260905013618 | 20 | 232 | 0.0 | 0.0 | 0.00 | 0.03 | 0.03 | 64 | 1024.9 |
| 20260905013111 | 20 | 232 | 0.0 | 0.0 | 0.00 | 0.08 | 0.03 | 62 | 1024.8 |
| 20260905012609 | 20 | 232 | 0.0 | 0.0 | 0.00 | 0.08 | 0.03 | 63 | 1024.8 |
| 20260905012122 | 20 | 232 | 0.0 | 0.0 | 0.00 | 0.08 | 0.03 | 60 | 1024.8 |
| 20260905011635 | 20 | 232 | 0.0 | 0.0 | 0.00 | 0.08 | 0.03 | 60 | 1024.8 |
| 20260905011108 | 21 | 232 | 0.0 | 0.0 | 0.00 | 0.08 | 0.03 | 60 | 1024.8 |
| 20260905010602 | 21 | 232 | 0.0 | 3.2 | 0.00 | 0.08 | 0.03 | 58 | 1024.8 |
| 20260905010117 | 20 | 232 | 0.0 | 3.2 | 0.00 | 0.08 | 0.03 | 58 | 1024.9 |
| 20260905005610 | 20 | 232 | 0.0 | 3.2 | 0.00 | 0.08 | 0.03 | 59 | 1024.8 |
| 20260905005103 | 20 | 232 | 1.6 | 4.8 | 0.00 | 0.08 | 0.03 | 59 | 1024.7 |
| 20260905004616 | 21 | 234 | 3.2 | 6.4 | 0.00 | 0.08 | 0.03 | 58 | 1024.8 |
| 20260905004115 | 21 | 234 | 3.2 | 6.4 | 0.00 | 0.08 | 0.03 | 58 | 1024.7 |
| 20260905003608 | 21 | 249 | 3.2 | 6.4 | 0.00 | 0.08 | 0.03 | 57 | 1024.6 |
| 20260905003121 | 21 | 215 | 0.0 | 6.4 | 0.00 | 0.53 | 0.03 | 55 | 1024.6 |
| 20260905002616 | 21 | 218 | 1.6 | 8.0 | 0.00 | 0.53 | 0.03 | 54 | 1024.6 |
| 20260905002110 | 22 | 51 | 3.2 | 6.4 | 0.00 | 0.53 | 0.03 | 55 | 1024.7 |
| 20260905001603 | 22 | 295 | 3.2 | 9.7 | 0.00 | 0.53 | 0.03 | 55 | 1024.6 |
| 20260905001118 | 23 | 36 | 4.8 | 9.7 | 0.00 | 0.53 | 0.03 | 47 | 1024.6 |
| 20260905000615 | 23 | 251 | 1.6 | 8.0 | 0.00 | 0.53 | 0.03 | 45 | 1024.7 |
| 20260905000109 | 23 | 32 | 3.2 | 9.7 | 0.00 | 0.53 | 0.03 | 45 | 1024.5 |
| 20260904235603 | 24 | 229 | 4.8 | 9.7 | 0.00 | 0.53 | 0.03 | 44 | 1024.5 |
| 20260904235117 | 25 | 321 | 3.2 | 8.0 | 0.00 | 0.53 | 0.03 | 42 | 1024.4 |
| 20260904234609 | 25 | 18 | 1.6 | 8.0 | 0.00 | 0.53 | 0.03 | 42 | 1024.1 |
| 20260904234102 | 25 | 117 | 0.0 | 0.0 | 0.00 | 0.53 | 0.03 | 41 | 1024.1 |
| 20260904233635 | 25 | 117 | 0.0 | 3.2 | 0.00 | 0.53 | 0.03 | 41 | 1023.9 |
| 20260904233109 | 25 | 117 | 1.6 | 3.2 | 0.00 | 0.53 | 0.03 | 39 | 1023.9 |
| 20260904232603 | 25 | 117 | 1.6 | 4.8 | 0.00 | 0.53 | 0.03 | 40 | 1023.9 |
| 20260904232120 | 25 | 155 | 1.6 | 4.8 | 0.00 | 0.53 | 0.03 | 40 | 1023.9 |
| 20260904231615 | 26 | 169 | 0.0 | 4.8 | 0.00 | 0.53 | 0.03 | 39 | 1023.9 |
| 20260904231129 | 26 | 169 | 1.6 | 6.4 | 0.00 | 0.53 | 0.03 | 39 | 1023.9 |
| 20260904230621 | 26 | 151 | 3.2 | 6.4 | 0.00 | 0.53 | 0.03 | 39 | 1023.9 |
| 20260904230115 | 26 | 142 | 0.0 | 3.2 | 0.00 | 0.53 | 0.03 | 39 | 1023.8 |
| 20260904225610 | 26 | 160 | 1.6 | 3.2 | 0.00 | 0.53 | 0.03 | 38 | 1023.8 |
| 20260904225103 | 26 | 160 | 1.6 | 4.8 | 0.00 | 0.53 | 0.03 | 39 | 1023.8 |
| 20260904224616 | 26 | 160 | 1.6 | 4.8 | 0.00 | 0.53 | 0.03 | 39 | 1023.8 |
| 20260904224114 | 26 | 53 | 1.6 | 6.4 | 0.00 | 0.53 | 0.03 | 38 | 1023.7 |
| 20260904223628 | 26 | 55 | 4.8 | 6.4 | 0.00 | 0.53 | 0.03 | 37 | 1023.8 |
| 20260904223120 | 26 | 192 | 3.2 | 4.8 | 0.00 | 0.53 | 0.03 | 38 | 1023.8 |
| 20260904222613 | 26 | 320 | 0.0 | 4.8 | 0.00 | 0.53 | 0.03 | 39 | 1023.8 |
| 20260904222108 | 26 | 320 | 1.6 | 4.8 | 0.00 | 0.53 | 0.03 | 40 | 1023.8 |
| 20260904221621 | 26 | 333 | 1.6 | 4.8 | 0.00 | 0.53 | 0.03 | 38 | 1023.9 |
| 20260904221115 | 26 | 355 | 1.6 | 4.8 | 0.00 | 0.53 | 0.03 | 40 | 1024.0 |
| 20260904220606 | 25 | 355 | 3.2 | 4.8 | 0.00 | 0.53 | 0.03 | 41 | 1024.1 |
| 20260904220120 | 25 | 55 | 3.2 | 9.7 | 0.00 | 0.53 | 0.03 | 40 | 1024.1 |
| 20260904215613 | 25 | 46 | 4.8 | 9.7 | 0.00 | 0.53 | 0.03 | 41 | 1024.0 |
| 20260904215108 | 25 | 115 | 1.6 | 4.8 | 0.00 | 0.53 | 0.03 | 46 | 1024.1 |
| 20260904214642 | 25 | 172 | 1.6 | 4.8 | 0.00 | 0.53 | 0.03 | 44 | 1024.1 |
| 20260904214114 | 25 | 36 | 3.2 | 8.0 | 0.00 | 0.53 | 0.03 | 44 | 1024.3 |
| 20260904213608 | 24 | 53 | 4.8 | 8.0 | 0.00 | 0.53 | 0.03 | 47 | 1024.4 |
| 20260904213122 | 24 | 80 | 3.2 | 8.0 | 0.00 | 0.53 | 0.03 | 49 | 1024.6 |
| 20260904212615 | 24 | 52 | 3.2 | 6.4 | 0.00 | 0.53 | 0.03 | 49 | 1024.6 |
| 20260904212109 | 25 | 57 | 3.2 | 6.4 | 0.00 | 0.53 | 0.03 | 46 | 1024.6 |
| 20260904211602 | 25 | 56 | 4.8 | 6.4 | 0.00 | 0.53 | 0.03 | 45 | 1024.6 |
| 20260904211121 | 25 | 49 | 3.2 | 4.8 | 0.00 | 0.53 | 0.03 | 45 | 1024.6 |
| 20260904210613 | 25 | 5 | 1.6 | 3.2 | 0.00 | 0.53 | 0.03 | 46 | 1024.7 |
| 20260904210108 | 25 | 342 | 1.6 | 4.8 | 0.00 | 0.53 | 0.03 | 42 | 1024.8 |
| 20260904205620 | 25 | 34 | 1.6 | 4.8 | 0.00 | 0.53 | 0.03 | 41 | 1024.8 |
| 20260904205113 | 25 | 268 | 0.0 | 4.8 | 0.00 | 0.53 | 0.03 | 43 | 1024.9 |
| 20260904204607 | 26 | 254 | 1.6 | 4.8 | 0.00 | 0.53 | 0.03 | 40 | 1025.0 |
| 20260904204120 | 26 | 254 | 1.6 | 8.0 | 0.00 | 0.53 | 0.03 | 40 | 1025.1 |
| 20260904203614 | 26 | 217 | 3.2 | 11.3 | 0.00 | 0.53 | 0.03 | 40 | 1025.1 |
| 20260904203108 | 26 | 157 | 1.6 | 8.0 | 0.00 | 0.53 | 0.03 | 41 | 1025.1 |
| 20260904202605 | 26 | 127 | 1.6 | 6.4 | 0.00 | 0.53 | 0.03 | 40 | 1025.2 |
| 20260904202119 | 26 | 164 | 1.6 | 6.4 | 0.00 | 0.53 | 0.03 | 40 | 1025.3 |
| 20260904201612 | 26 | 144 | 3.2 | 6.4 | 0.00 | 0.53 | 0.03 | 41 | 1025.3 |
| 20260904201105 | 26 | 177 | 1.6 | 4.8 | 0.00 | 0.53 | 0.03 | 42 | 1025.4 |
| 20260904200618 | 26 | 298 | 1.6 | 6.4 | 0.00 | 0.53 | 0.03 | 41 | 1025.5 |
| 20260904200112 | 26 | 150 | 3.2 | 6.4 | 0.00 | 0.53 | 0.03 | 42 | 1025.6 |
| 20260904195626 | 26 | 146 | 0.0 | 8.0 | 0.00 | 0.53 | 0.03 | 44 | 1025.6 |
| 20260904195117 | 26 | 212 | 3.2 | 8.0 | 0.00 | 0.53 | 0.03 | 42 | 1025.6 |
| 20260904194615 | 26 | 279 | 1.6 | 14.5 | 0.00 | 0.53 | 0.03 | 41 | 1025.8 |
| 20260904194108 | 26 | 293 | 3.2 | 14.5 | 0.00 | 0.53 | 0.03 | 42 | 1025.8 |
| 20260904193602 | 26 | 139 | 1.6 | 4.8 | 0.00 | 0.53 | 0.03 | 46 | 1025.8 |
| 20260904193115 | 25 | 198 | 3.2 | 8.0 | 0.00 | 0.53 | 0.03 | 45 | 1025.9 |
| 20260904192609 | 25 | 105 | 3.2 | 12.9 | 0.00 | 0.53 | 0.03 | 45 | 1026.0 |
| 20260904192103 | 24 | 145 | 4.8 | 12.9 | 0.00 | 0.53 | 0.03 | 51 | 1025.9 |
| 20260904191615 | 23 | 41 | 4.8 | 8.0 | 0.00 | 0.53 | 0.03 | 47 | 1026.1 |
| 20260904191108 | 23 | 139 | 1.6 | 6.4 | 0.00 | 0.53 | 0.03 | 49 | 1026.2 |
| 20260904190606 | 23 | 105 | 1.6 | 4.8 | 0.00 | 0.53 | 0.03 | 50 | 1026.2 |
| 20260904190120 | 23 | 115 | 0.0 | 4.8 | 0.00 | 0.53 | 0.03 | 47 | 1026.2 |
| 20260904185613 | 23 | 138 | 0.0 | 1.6 | 0.00 | 0.53 | 0.03 | 47 | 1026.2 |
| 20260904185127 | 23 | 138 | 0.0 | 3.2 | 0.00 | 0.53 | 0.03 | 49 | 1026.3 |
| 20260904184619 | 23 | 138 | 1.6 | 6.4 | 0.00 | 0.53 | 0.03 | 46 | 1026.4 |
| 20260904184112 | 23 | 140 | 3.2 | 11.3 | 0.00 | 0.53 | 0.03 | 46 | 1026.4 |
| 20260904183606 | 23 | 29 | 4.8 | 11.3 | 0.00 | 0.53 | 0.03 | 46 | 1026.5 |
| 20260904183120 | 23 | 67 | 1.6 | 4.8 | 0.00 | 0.53 | 0.03 | 47 | 1026.6 |
| 20260904182614 | 23 | 67 | 1.6 | 12.9 | 0.00 | 0.53 | 0.03 | 47 | 1026.6 |
| 20260904182111 | 23 | 144 | 4.8 | 12.9 | 0.00 | 0.53 | 0.03 | 47 | 1026.7 |
| 20260904181605 | 24 | 128 | 6.4 | 11.3 | 0.00 | 0.53 | 0.03 | 44 | 1026.7 |
| 20260904181119 | 24 | 70 | 0.0 | 8.0 | 0.00 | 0.53 | 0.03 | 46 | 1026.7 |
| 20260904180612 | 24 | 142 | 3.2 | 8.0 | 0.00 | 0.53 | 0.03 | 44 | 1026.8 |
| 20260904180105 | 24 | 94 | 1.6 | 11.3 | 0.00 | 0.53 | 0.03 | 47 | 1026.8 |
| 20260904175620 | 24 | 141 | 3.2 | 11.3 | 0.00 | 0.53 | 0.03 | 45 | 1026.9 |
| 20260904175114 | 24 | 221 | 1.6 | 6.4 | 0.00 | 0.53 | 0.03 | 46 | 1026.8 |
| 20260904174611 | 24 | 107 | 3.2 | 4.8 | 0.00 | 0.53 | 0.03 | 49 | 1026.9 |
| 20260904174105 | 24 | 25 | 1.6 | 6.4 | 0.00 | 0.53 | 0.03 | 49 | 1026.9 |
| 20260904173639 | 24 | 35 | 3.2 | 6.4 | 0.00 | 0.53 | 0.03 | 50 | 1026.8 |
| 20260904173111 | 23 | 159 | 3.2 | 8.0 | 0.00 | 0.53 | 0.03 | 49 | 1026.9 |
| 20260904172605 | 23 | 194 | 1.6 | 8.0 | 0.00 | 0.53 | 0.03 | 47 | 1026.9 |
| 20260904172119 | 22 | 234 | 0.0 | 6.4 | 0.00 | 0.53 | 0.03 | 49 | 1026.9 |
| 20260904171633 | 22 | 53 | 4.8 | 6.4 | 0.00 | 0.53 | 0.03 | 48 | 1026.9 |
| 20260904171105 | 22 | 59 | 1.6 | 6.4 | 0.00 | 0.53 | 0.03 | 50 | 1026.9 |
| 20260904170618 | 22 | 40 | 3.2 | 6.4 | 0.00 | 0.53 | 0.03 | 49 | 1026.9 |
| 20260904170116 | 22 | 46 | 4.8 | 6.4 | 0.00 | 0.53 | 0.03 | 48 | 1027.0 |
| 20260904165609 | 22 | 46 | 0.0 | 6.4 | 0.00 | 0.53 | 0.03 | 50 | 1027.0 |
| 20260904165102 | 22 | 46 | 1.6 | 6.4 | 0.00 | 0.53 | 0.03 | 50 | 1027.1 |
| 20260904164617 | 22 | 68 | 3.2 | 9.7 | 0.00 | 0.53 | 0.03 | 51 | 1027.1 |
| 20260904164110 | 22 | 154 | 0.0 | 8.0 | 0.00 | 0.53 | 0.03 | 51 | 1027.0 |
| 20260904163604 | 22 | 57 | 3.2 | 6.4 | 0.00 | 0.53 | 0.03 | 51 | 1027.0 |
| 20260904163118 | 22 | 207 | 0.0 | 6.4 | 0.00 | 0.53 | 0.03 | 50 | 1027.2 |
| 20260904162611 | 22 | 207 | 4.8 | 6.4 | 0.00 | 0.53 | 0.03 | 51 | 1027.2 |
| 20260904162109 | 21 | 34 | 1.6 | 6.4 | 0.00 | 0.53 | 0.03 | 53 | 1027.2 |
| 20260904161642 | 21 | 123 | 1.6 | 3.2 | 0.00 | 0.53 | 0.03 | 53 | 1027.2 |
| 20260904161114 | 21 | 125 | 1.6 | 3.2 | 0.00 | 0.53 | 0.03 | 54 | 1027.1 |
| 20260904160607 | 21 | 72 | 1.6 | 3.2 | 0.00 | 0.53 | 0.03 | 53 | 1027.1 |
| 20260904160120 | 21 | 163 | 0.0 | 0.0 | 0.00 | 0.53 | 0.03 | 53 | 1027.1 |
| 20260904155634 | 21 | 163 | 0.0 | 1.6 | 0.00 | 0.53 | 0.03 | 52 | 1027.1 |
| 20260904155105 | 21 | 163 | 0.0 | 4.8 | 0.00 | 0.53 | 0.03 | 54 | 1027.1 |
| 20260904154619 | 21 | 163 | 1.6 | 4.8 | 0.00 | 0.53 | 0.03 | 53 | 1027.1 |
| 20260904154112 | 21 | 163 | 3.2 | 4.8 | 0.00 | 0.53 | 0.03 | 52 | 1027.0 |
| 20260904153607 | 21 | 163 | 1.6 | 6.4 | 0.00 | 0.53 | 0.03 | 53 | 1027.1 |
| 20260904153104 | 21 | 156 | 0.0 | 4.8 | 0.00 | 0.53 | 0.03 | 54 | 1027.1 |
| 20260904152618 | 21 | 138 | 1.6 | 4.8 | 0.00 | 0.53 | 0.03 | 56 | 1027.1 |
| 20260904152111 | 20 | 130 | 1.6 | 4.8 | 0.00 | 0.53 | 0.03 | 60 | 1027.0 |
| 20260904151605 | 20 | 31 | 3.2 | 4.8 | 0.00 | 0.53 | 0.03 | 59 | 1027.0 |
| 20260904151140 | 20 | 101 | 0.0 | 1.6 | 0.00 | 0.53 | 0.03 | 59 | 1027.0 |
| 20260904150613 | 20 | 66 | 0.0 | 3.2 | 0.00 | 0.53 | 0.03 | 61 | 1027.0 |
| 20260904150106 | 20 | 67 | 0.0 | 3.2 | 0.00 | 0.53 | 0.03 | 61 | 1027.0 |
| 20260904145620 | 19 | 67 | 0.0 | 3.2 | 0.00 | 0.53 | 0.03 | 59 | 1027.0 |
| 20260904145114 | 19 | 173 | 0.0 | 4.8 | 0.00 | 0.53 | 0.03 | 61 | 1027.0 |
| 20260904144611 | 18 | 173 | 3.2 | 4.8 | 0.00 | 0.53 | 0.03 | 62 | 1026.9 |
| 20260904144106 | 18 | 144 | 0.0 | 0.0 | 0.00 | 0.53 | 0.03 | 68 | 1026.9 |
| 20260904143619 | 17 | 105 | 0.0 | 0.0 | 0.00 | 0.53 | 0.03 | 72 | 1026.9 |
| 20260904143113 | 17 | 105 | 0.0 | 0.0 | 0.00 | 0.53 | 0.03 | 78 | 1026.9 |
| 20260904142606 | 16 | 105 | 0.0 | 0.0 | 0.00 | 0.53 | 0.03 | 79 | 1026.8 |
| 20260904142120 | 16 | 105 | 0.0 | 0.0 | 0.00 | 0.53 | 0.03 | 76 | 1026.7 |
| 20260904141634 | 16 | 105 | 0.0 | 0.0 | 0.00 | 0.53 | 0.03 | 78 | 1026.7 |
| 20260904141106 | 16 | 105 | 0.0 | 0.0 | 0.00 | 0.53 | 0.03 | 78 | 1026.6 |
| 20260904140604 | 15 | 105 | 0.0 | 0.0 | 0.00 | 0.53 | 0.03 | 82 | 1026.5 |
| 20260904140117 | 15 | 105 | 0.0 | 0.0 | 0.00 | 0.53 | 0.03 | 83 | 1026.5 |
| 20260904135611 | 15 | 105 | 0.0 | 0.0 | 0.00 | 0.53 | 0.03 | 82 | 1026.3 |
| 20260904135104 | 15 | 105 | 0.0 | 0.0 | 0.00 | 0.53 | 0.03 | 83 | 1026.2 |
| 20260904134618 | 15 | 105 | 0.0 | 0.0 | 0.03 | 0.53 | 0.03 | 82 | 1026.1 |
| 20260904134110 | 15 | 105 | 0.0 | 0.0 | 0.03 | 0.53 | 0.03 | 82 | 1026.1 |
| 20260904133604 | 15 | 105 | 0.0 | 0.0 | 0.03 | 0.53 | 0.03 | 81 | 1026.1 |
| 20260904133117 | 15 | 105 | 0.0 | 0.0 | 0.03 | 0.53 | 0.03 | 81 | 1026.1 |
| 20260904132616 | 15 | 105 | 0.0 | 0.0 | 0.03 | 0.53 | 0.03 | 82 | 1026.1 |
| 20260904132108 | 15 | 105 | 0.0 | 0.0 | 0.03 | 0.53 | 0.03 | 82 | 1026.0 |
| 20260904131602 | 15 | 105 | 0.0 | 0.0 | 0.03 | 0.53 | 0.03 | 82 | 1025.9 |
| 20260904131116 | 15 | 105 | 0.0 | 0.0 | 0.03 | 0.53 | 0.03 | 83 | 1025.7 |
| 20260904130609 | 15 | 105 | 0.0 | 0.0 | 0.03 | 0.53 | 0.03 | 83 | 1025.8 |
| 20260904130143 | 15 | 105 | 0.0 | 0.0 | 0.03 | 0.53 | 0.03 | 82 | 1025.7 |
| 20260904125616 | 15 | 105 | 0.0 | 0.0 | 0.03 | 0.53 | 0.03 | 82 | 1025.5 |
| 20260904125110 | 15 | 105 | 0.0 | 0.0 | 0.03 | 0.53 | 0.03 | 80 | 1025.5 |
| 20260904124608 | 15 | 105 | 0.0 | 0.0 | 0.00 | 0.51 | 0.00 | 81 | 1025.4 |
| 20260904124122 | 15 | 105 | 0.0 | 0.0 | 0.00 | 0.51 | 0.00 | 81 | 1025.4 |
| 20260904123615 | 15 | 105 | 0.0 | 0.0 | 0.00 | 0.51 | 0.00 | 82 | 1025.5 |
| 20260904123108 | 15 | 105 | 0.0 | 0.0 | 0.00 | 0.51 | 0.00 | 82 | 1025.4 |
| 20260904122621 | 15 | 105 | 0.0 | 0.0 | 0.00 | 0.51 | 0.00 | 81 | 1025.4 |
| 20260904122115 | 15 | 105 | 0.0 | 0.0 | 0.00 | 0.51 | 0.00 | 80 | 1025.3 |
| 20260904121629 | 15 | 105 | 0.0 | 0.0 | 0.00 | 0.51 | 0.00 | 81 | 1025.3 |
| 20260904121102 | 15 | 105 | 0.0 | 0.0 | 0.00 | 0.51 | 0.00 | 80 | 1025.2 |
| 20260904120614 | 15 | 105 | 0.0 | 0.0 | 0.00 | 0.51 | 0.00 | 80 | 1025.1 |
| 20260904120112 | 15 | 105 | 0.0 | 0.0 | 0.00 | 0.51 | 0.00 | 81 | 1025.1 |
| 20260904115625 | 15 | 105 | 0.0 | 0.0 | 0.00 | 0.51 | 0.00 | 83 | 1025.1 |
| 20260904115117 | 15 | 105 | 0.0 | 0.0 | 0.00 | 0.51 | 0.00 | 81 | 1025.0 |
| 20260904114610 | 15 | 105 | 0.0 | 0.0 | 0.00 | 0.51 | 0.00 | 81 | 1025.0 |
| 20260904114123 | 15 | 105 | 0.0 | 0.0 | 0.00 | 0.51 | 0.00 | 82 | 1024.9 |
| 20260904113617 | 15 | 105 | 0.0 | 0.0 | 0.00 | 0.51 | 0.00 | 81 | 1024.9 |
| 20260904113111 | 15 | 105 | 0.0 | 0.0 | 0.00 | 0.51 | 0.00 | 79 | 1024.9 |
| 20260904112626 | 15 | 105 | 0.0 | 0.0 | 0.00 | 0.51 | 0.00 | 80 | 1024.8 |
| 20260904112118 | 15 | 105 | 0.0 | 0.0 | 0.00 | 0.51 | 0.00 | 80 | 1024.8 |
| 20260904111632 | 15 | 105 | 0.0 | 0.0 | 0.00 | 0.51 | 0.00 | 81 | 1024.9 |
| 20260904111106 | 15 | 105 | 0.0 | 0.0 | 0.00 | 0.51 | 0.00 | 82 | 1024.9 |
| 20260904110604 | 15 | 105 | 0.0 | 0.0 | 0.00 | 0.51 | 0.00 | 80 | 1024.8 |
| 20260904110118 | 15 | 105 | 0.0 | 0.0 | 0.00 | 0.51 | 0.00 | 80 | 1024.8 |
| 20260904105612 | 15 | 105 | 0.0 | 0.0 | 0.00 | 0.51 | 0.00 | 81 | 1024.8 |
| 20260904105126 | 15 | 105 | 0.0 | 0.0 | 0.00 | 0.51 | 0.00 | 83 | 1024.7 |
| 20260904104620 | 15 | 105 | 0.0 | 0.0 | 0.00 | 0.51 | 0.00 | 82 | 1024.6 |
| 20260904104113 | 15 | 105 | 0.0 | 0.0 | 0.00 | 0.51 | 0.00 | 84 | 1024.6 |
| 20260904103607 | 15 | 105 | 0.0 | 0.0 | 0.00 | 0.51 | 0.00 | 82 | 1024.5 |
| 20260904103121 | 15 | 105 | 0.0 | 0.0 | 0.00 | 0.51 | 0.00 | 82 | 1024.5 |
| 20260904102615 | 15 | 105 | 0.0 | 0.0 | 0.00 | 0.51 | 0.00 | 81 | 1024.5 |
| 20260904102113 | 15 | 105 | 0.0 | 0.0 | 0.00 | 0.51 | 0.00 | 82 | 1024.5 |
| 20260904101607 | 15 | 105 | 0.0 | 0.0 | 0.00 | 0.51 | 0.00 | 82 | 1024.5 |
| 20260904101121 | 14 | 105 | 0.0 | 0.0 | 0.00 | 0.51 | 0.00 | 81 | 1024.5 |
| 20260904100616 | 14 | 105 | 0.0 | 0.0 | 0.00 | 0.51 | 0.00 | 82 | 1024.5 |
| 20260904100111 | 14 | 105 | 0.0 | 0.0 | 0.00 | 0.51 | 0.00 | 83 | 1024.6 |
| 20260904095605 | 14 | 105 | 0.0 | 0.0 | 0.00 | 0.51 | 0.00 | 84 | 1024.5 |
| 20260904095139 | 14 | 105 | 0.0 | 0.0 | 0.00 | 0.51 | 0.00 | 82 | 1024.5 |
| 20260904094612 | 14 | 105 | 0.0 | 0.0 | 0.00 | 0.51 | 0.00 | 82 | 1024.5 |
| 20260904094109 | 14 | 105 | 0.0 | 0.0 | 0.00 | 0.51 | 0.00 | 83 | 1024.5 |
| 20260904093604 | 14 | 105 | 0.0 | 0.0 | 0.00 | 0.51 | 0.00 | 84 | 1024.4 |
| 20260904093118 | 14 | 105 | 0.0 | 0.0 | 0.00 | 0.51 | 0.00 | 83 | 1024.4 |
| 20260904092612 | 13 | 105 | 0.0 | 0.0 | 0.00 | 0.51 | 0.00 | 82 | 1024.4 |
| 20260904092106 | 13 | 105 | 0.0 | 0.0 | 0.00 | 0.51 | 0.00 | 82 | 1024.5 |
| 20260904091637 | 13 | 105 | 0.0 | 0.0 | 0.00 | 0.51 | 0.00 | 83 | 1024.5 |
| 20260904091111 | 13 | 105 | 0.0 | 0.0 | 0.00 | 0.51 | 0.00 | 82 | 1024.6 |
| 20260904090604 | 13 | 105 | 0.0 | 0.0 | 0.00 | 0.51 | 0.00 | 83 | 1024.5 |
| 20260904085616 | 13 | 105 | 0.0 | 0.0 | 0.00 | 0.51 | 0.00 | 83 | 1024.6 |
| 20260904085111 | 13 | 105 | 0.0 | 0.0 | 0.00 | 0.51 | 0.00 | 83 | 1024.5 |
| 20260904084625 | 13 | 105 | 0.0 | 0.0 | 0.00 | 0.51 | 0.00 | 84 | 1024.5 |
| 20260904084118 | 13 | 105 | 0.0 | 0.0 | 0.00 | 0.51 | 0.00 | 84 | 1024.5 |
| 20260904083633 | 13 | 105 | 0.0 | 0.0 | 0.00 | 0.51 | 0.00 | 82 | 1024.6 |
| 20260904083106 | 13 | 105 | 0.0 | 0.0 | 0.00 | 0.51 | 0.00 | 84 | 1024.6 |
| 20260904082620 | 13 | 105 | 0.0 | 0.0 | 0.00 | 0.51 | 0.00 | 85 | 1024.6 |
| 20260904082114 | 13 | 105 | 0.0 | 0.0 | 0.00 | 0.51 | 0.00 | 84 | 1024.7 |
| 20260904081612 | 13 | 105 | 0.0 | 0.0 | 0.00 | 0.51 | 0.00 | 83 | 1024.7 |
| 20260904081106 | 13 | 105 | 0.0 | 0.0 | 0.00 | 0.51 | 0.00 | 82 | 1024.7 |
| 20260904080620 | 13 | 105 | 0.0 | 0.0 | 0.00 | 0.51 | 0.00 | 81 | 1024.6 |
| 20260904080116 | 13 | 105 | 0.0 | 0.0 | 0.00 | 0.51 | 0.00 | 83 | 1024.6 |
| 20260904075608 | 13 | 105 | 0.0 | 0.0 | 0.00 | 0.51 | 0.00 | 82 | 1024.7 |
| 20260904075122 | 13 | 105 | 0.0 | 0.0 | 0.00 | 0.51 | 0.00 | 81 | 1024.6 |
| 20260904074615 | 13 | 105 | 0.0 | 0.0 | 0.00 | 0.51 | 0.00 | 80 | 1024.7 |
| 20260904074109 | 13 | 105 | 0.0 | 0.0 | 0.00 | 0.51 | 0.00 | 81 | 1024.8 |
| 20260904073607 | 13 | 105 | 0.0 | 0.0 | 0.00 | 0.51 | 0.00 | 81 | 1024.8 |
| 20260904073103 | 13 | 105 | 0.0 | 0.0 | 0.00 | 0.51 | 0.00 | 81 | 1024.9 |
| 20260904072617 | 13 | 105 | 0.0 | 0.0 | 0.00 | 0.51 | 0.00 | 81 | 1024.9 |
| 20260904072111 | 13 | 105 | 0.0 | 0.0 | 0.00 | 0.51 | 0.00 | 81 | 1025.0 |
| 20260904071625 | 13 | 105 | 0.0 | 0.0 | 0.00 | 0.51 | 0.00 | 82 | 1024.8 |
| 20260904071139 | 13 | 105 | 0.0 | 0.0 | 0.00 | 0.51 | 0.00 | 81 | 1024.8 |
| 20260904070612 | 13 | 105 | 0.0 | 0.0 | 0.00 | 0.51 | 0.00 | 80 | 1024.9 |
| 20260904070106 | 13 | 105 | 0.0 | 0.0 | 0.00 | 0.51 | 0.00 | 80 | 1024.8 |
| 20260904065604 | 13 | 105 | 0.0 | 0.0 | 0.00 | 0.51 | 0.00 | 80 | 1024.8 |
| 20260904065118 | 14 | 105 | 0.0 | 0.0 | 0.00 | 0.51 | 0.00 | 80 | 1024.8 |
| 20260904064613 | 14 | 105 | 0.0 | 0.0 | 0.00 | 0.51 | 0.00 | 79 | 1024.8 |
| 20260904064107 | 14 | 105 | 0.0 | 0.0 | 0.00 | 0.51 | 0.00 | 80 | 1024.8 |
| 20260904063642 | 14 | 105 | 0.0 | 0.0 | 0.00 | 0.51 | 0.00 | 79 | 1024.9 |
| 20260904063114 | 14 | 105 | 0.0 | 0.0 | 0.00 | 0.51 | 0.51 | 80 | 1025.0 |
| 20260904062609 | 15 | 105 | 0.0 | 0.0 | 0.00 | 0.51 | 0.51 | 80 | 1025.0 |
| 20260904062102 | 15 | 105 | 0.0 | 0.0 | 0.00 | 0.51 | 0.51 | 79 | 1025.0 |
| 20260904061617 | 15 | 105 | 0.0 | 0.0 | 0.00 | 0.51 | 0.51 | 79 | 1025.0 |
| 20260904061115 | 15 | 105 | 0.0 | 0.0 | 0.00 | 0.51 | 0.51 | 79 | 1025.0 |
| 20260904060609 | 15 | 105 | 0.0 | 0.0 | 0.00 | 0.51 | 0.51 | 78 | 1025.0 |
| 20260904060103 | 15 | 105 | 0.0 | 0.0 | 0.00 | 0.51 | 0.51 | 78 | 1025.0 |
| 20260904055617 | 15 | 105 | 0.0 | 0.0 | 0.00 | 0.51 | 0.51 | 78 | 1025.1 |
| 20260904055110 | 15 | 105 | 0.0 | 0.0 | 0.00 | 0.51 | 0.51 | 77 | 1025.1 |
| 20260904054605 | 15 | 105 | 0.0 | 0.0 | 0.00 | 0.51 | 0.51 | 78 | 1025.2 |
| 20260904054118 | 15 | 105 | 0.0 | 0.0 | 0.00 | 0.51 | 0.51 | 79 | 1025.2 |